Regional Weather Roundup
Issued by NWS

Home | Current Version | Previous Version | Text Only | Print | Product List | Glossary On
Versions: 1 2 3 4 5 6 7 8 9 10 11 12 13 14 15 16 17 18 19 20 21 22 23 24 25 26 27 28 29 30 31 32 33 34 35 36 37 38 39 40 41 42 43 44 45 46 47 48 49 50
000
ASCA42 TJSJ 311511
RWRPR
PUERTO RICO/U.S. VIRGIN ISLANDS HOURLY WEATHER ROUNDUP
NATIONAL WEATHER SERVICE SAN JUAN PR
1100 AM AST SAT JAN 31 2015

PRZ001-004-311600-
PUERTO RICO

CITY           SKY/WX    TMP DP  RH WIND       PRES   REMARKS
SAN JUAN LMM   PTSUNNY   81  72  74 E12       30.04S
AGUADILLA      PTSUNNY   81  70  69 E6        30.06
CEIBA          SUNNY     82  70  65 E6        30.06S
$$

PRZ006-007-311600-
U.S. VIRGIN ISLANDS

CITY           SKY/WX    TMP DP  RH WIND       PRES   REMARKS
$$

HOURLY WEATHER ROUNDUP FOR THE NEWS MEDIA

CITY           SKY/WX    TMP DP  RH WIND       PRES   REMARKS
MIAMI          MOSUNNY   69  53  56 N3        30.23R
ORLANDO        SUNNY     61  46  57 NE9       30.29R
NEW YORK       MOSUNNY   17  -3  41 NW26G39   30.13R WCI  -2
NEWARK         SUNNY     16  -2  45 NW21G37   30.16R WCI  -1
CHICAGO        MOSUNNY   28  20  71 SW9       30.23S WCI  19
HARTFORD       MOSUNNY   16  -4  41 NW16G23   29.81R WCI   1
BOSTON         CLOUDY    14  -3  47 NW26G38   29.84R WCI  -6
DALLAS         CLOUDY    48  32  53 SE16      30.21F
PHILADELPHIA   SUNNY     19  -3  38 NW18G29   30.28R WCI   4



USA.gov is the U.S. government's official web portal to all federal, state and local government web resources and services.